AirNav   Air Wisconsin Up To $57,000 Bonus
 
 811 users online  

7G8 Geauga County Airport
Middlefield, Ohio, USA

GOING TO MIDDLEFIELD?


FAA INFORMATION EFFECTIVE 07 NOVEMBER 2019

Location

FAA Identifier: 7G8
Lat/Long: 41-26-58.5000N 081-03-46.6000W
41-26.975000N 081-03.776667W
41.4495833,-81.0629444
(estimated)
Elevation: 1174.2 ft. / 357.9 m (surveyed)
Variation: 09W (2015)
From city: 1 mile SE of MIDDLEFIELD, OH
Time zone: UTC -5 (UTC -4 during Daylight Saving Time)
Zip code: 44062

Airport Operations

Airport use: Open to the public
Control tower: no
ARTCC: CLEVELAND CENTER
FSS: CLEVELAND FLIGHT SERVICE STATION
NOTAMs facility: CLE (NOTAM-D service available)
Attendance: MON 0900-1700, ALL TUE-SUN 0900-1700 IREG
Pattern altitude: 2199.2 ft. MSL
Wind indicator: lighted
Segmented circle: no
Lights: ACTVT REIL RWY 11/29; PAPI RWY 29; MIRL RWY 11/29 - CTAF.
Beacon: white-green (lighted land airport)
Operates sunset to sunrise.

Airport Communications

CTAF/UNICOM: 123.0
CLEVELAND APPROACH: 125.35
CLEVELAND DEPARTURE: 125.35
WX AWOS-3 at POV (17 nm SW): 118.675 (330-298-9353)

Nearby radio navigation aids

VOR radial/distance  VOR name  Freq  Var
CXRr137/6.1CHARDON VOR/DME112.7005W
YNGr297/18.9YOUNGSTOWN VORTAC109.0005W
ACOr021/21.4AKRON VOR/DME114.4004W
JFNr222/23.4JEFFERSON VOR/DME115.2005W

 
NDB name  Hdg/Dist  Freq  Var  ID
LAKELAND143/19.926308WLQL .-.. --.- .-..
CASTLE320/38.827209WUCP ..- -.-. .--.

Airport Services

Fuel available: 100LL MOGAS
Parking: hangars and tiedowns
Bottled oxygen: NONE

Runway Information

Runway 11/29

Dimensions: 3500 x 65 ft. / 1067 x 20 m
Surface: asphalt, in fair condition
Weight bearing capacity: 
Single wheel: 18.5
Runway edge lights: medium intensity
RUNWAY 11  RUNWAY 29
Latitude: 41-27.025530N41-26.925922N
Longitude: 081-04.153237W081-03.398898W
Elevation: 1174.2 ft.1157.8 ft.
Traffic pattern: leftleft
Runway heading: 109 magnetic, 100 true289 magnetic, 280 true
Displaced threshold: 182 ft.no
Markings: nonprecision, in fair conditionnonprecision, in fair condition
Visual slope indicator: 2-light PAPI on left (3.00 degrees glide path)
Runway end identifier lights: yesyes
Touchdown point: yes, no lightsyes, no lights
Obstructions: 79 ft. tank, lighted, 715 ft. from runway, 260 ft. left of centerline, 6:1 slope to clear
RWY 11 +3-5 FT BRUSH 0-200 FT FM RWY END; 250 FT L; +2-8 FT BRUSH 40 FT TO 200 FM RWY END 110 FT R.
70 ft. trees, 201 ft. from runway, 147 ft. right of centerline
RWY 29 +70 FT TREES 0-200 FT FM RWY END 210 FT R

Airport Ownership and Management from official FAA records

Ownership: Publicly-owned
Owner: GEAUGA CO BOARD OF COMM
COURTHOUSE ANNEX, MAIN ST.
CHARDON, OH 44024
Phone 440-285-2222
Manager: RIC BLAMER
15421 OLD STATE ROAD
MIDDLEFIELD, OH 44062
Phone 440-632-1884
ADNL CTC: 7G8MANAGER@GMAIL.COM / (216) 509-8858

Airport Operational Statistics

Aircraft based on the field: 36
Single engine airplanes: 24
Multi engine airplanes: 2
Helicopters: 1
Gliders airplanes: 6
Ultralights: 3
    
Aircraft operations: avg 28/day *
90% local general aviation
8% transient general aviation
2% air taxi
* for 12-month period ending 18 April 2019

Additional Remarks

PARALLEL TWY CLSD EAST OF T HNGRS PERMLY.
EXTSV GLDR ACTIVITY ON & INVOF ARPT.
DEER, BIRDS & OTHER WILDLIFE ON & INVOF ARPT.
FOR CD CTC CLEVELAND APCH AT 216-352-2323.

Instrument Procedures

NOTE: All procedures below are presented as PDF files. If you need a reader for these files, you should download the free Adobe Reader.

NOT FOR NAVIGATION. Please procure official charts for flight.
FAA instrument procedures published for use from 07 November 2019 at 0901Z to 05 December 2019 at 0900Z.

 
IAPs - Instrument Approach Procedures
RNAV (GPS) RWY 11 **CHANGED**   download (187KB)
RNAV (GPS) RWY 29 **CHANGED**   download (184KB)
VOR-A **CHANGED**   download (152KB)
NOTE: Special Take-Off Minimums/Departure Procedures apply   download (164KB)

Other nearby airports with instrument procedures:

2G1 - Concord Airpark (14 nm NW)
KPOV - Portage County Airport (17 nm SW)
KCGF - Cuyahoga County Airport (20 nm W)
KLNN - Willoughby Lost Nation Municipal Airport (20 nm NW)
KYNG - Youngstown-Warren Regional Airport (21 nm SE)
 
Loc | Ops | Rwys | IFR | FBO | Links
Com | Nav | Svcs | Stats | Notes
Area around 7G8 (Geauga County Airport)
 
Road maps at: MapQuest Bing Google
 
Aerial photo
WARNING: Photo may not be current or correct
Aerial photo of 7G8 (Geauga County Airport)
Do you have a better or more recent aerial photo of Geauga County Airport that you would like to share? If so, please send us your photo.

 
Sectional chart

 
Airport distance calculator
Flying to Geauga County Airport? Find the distance to fly.

From to 7G8

Sunrise and sunset
Times for 14-Nov-2019
 Local
(UTC-5)
 Zulu
(UTC)
Morning civil twilight06:4311:43
Sunrise07:1312:13
Sunset17:0522:05
Evening civil twilight17:3422:34

Current date and time
Zulu (UTC)  15-Nov-2019 01:17:35
Local (UTC-5)  14-Nov-2019 20:17:35
 
METAR
KPOV 
17nm SW 
150057Z AUTO 26005KT 10SM BKN043 01/M05 A3023 RMK AO2 T00051054 PWINO
KLNN 
19nm NW 
150055Z AUTO 25008KT 10SM OVC040 02/M06 A3024 RMK AO1 T00161057
KCGF 
19nm W 
142345Z 24007KT 20SM OVC040 01/M04 A3023
KYNG 
21nm SE 
150051Z 25004KT 10SM OVC045 02/M04 A3022 RMK AO2 SLP247 T00171044
KHZY 
26nm NE 
150053Z AUTO 24005KT 10SM OVC042 01/M04 A3023 RMK AO2 SLP248 T00111044
KBKL 
28nm W 
150053Z 23011KT 10SM OVC036 02/M04 A3024 RMK AO2 SLP248 T00221044
KAKR 
31nm SW 
150054Z AUTO 23005KT 10SM FEW048 02/M04 A3023 RMK AO2 SLP248 T00171044 $
TAF
KYNG 
21nm SE 
141739Z 1418/1518 22007KT P6SM OVC090 FM142200 23009KT P6SM SCT060 FM150800 24006KT P6SM SCT040
NOTAMs
Click for the latest NOTAMs
NOTAMs are issued by the DoD/FAA and will open in a separate window not controlled by AirNav.

 

 
 

FBO, Fuel Providers, and Aircraft Ground Support

  
 Business Name 
 
 Contact 
 
 Services / Description 
 
Fuel Prices
 
Comments
  
Geauga County Airport Authority 440-632-1884
no information available

If you are affiliated with Geauga County Airport Authority and would like to show here your services, contact info, web link, logo, and more, click here
100LL
AS $5.42 
 Updated 12-Sep-2019
 
   write
AS=Assisted/Self Service
Update Fuel Prices
 

Would you like to see your business listed on this page?

 If your business provides an interesting product or service to pilots, flight crews, aircraft, or users of the Geauga County Airport, you should consider listing it here.  To start the listing process, click on the button below
 
Add a business
 

Other Pages about Geauga County Airport

www.co.geauga.oh.us/...
 
Update a link
 
Copyright © AirNav, LLC. All rights reserved. Privacy Policy  Contact